BINAR-2

Last updated on Thu Sep 12 2024 00:02:06 GMT+0000 (Coordinated Universal Time)

1 60956U 98067WW 24255.39183502 .00156529 00000+0 23681-2 0 9994 2 60956 51.6351 248.0977 0011789 352.3377 7.7432 15.53559655 2017
UTC large
Height (km)
Speed (km/s)
/
Latitude / Longitude
Inclination (degrees)
Orbital Period (minutes)
Azimuth
Elevation
Range (km)
Doppler Factor

Next 0 passes for location: London (51.5072 / 0.1276)

Sorry there are no passes over London.